contact:dominique.lefevre@mio.osupytheas.fr, maurice.libes@osupytheas.fr, didier.mallarino@osupytheas.fr
Project:EMSO http://www.emso-fr.org/EMSO-France
Depth: 2436.0 m
Title:EMSO Ligure Ouest : Data MII capteur MICROCAT
DateTime_Computer,Latitude,Longitude,Temperature,Conductivity,Pressure,DateTime_Instrument
DateTime_Computer,Latitude,Longitude,degC,S m-1,dbar,DateTime_Instrument
2023-09-30T00:02:20Z,42.805,6.029,13.3025,4.60091,2470.693,2023-9-30T02:04:43Z
2023-09-30T00:05:23Z,42.805,6.029,13.3024,4.60092,2470.73,2023-9-30T02:07:46Z
2023-09-30T00:08:26Z,42.805,6.029,13.3029,4.60091,2470.684,2023-9-30T02:10:49Z
2023-09-30T00:11:29Z,42.805,6.029,13.3026,4.60091,2470.684,2023-9-30T02:13:52Z
2023-09-30T00:14:32Z,42.805,6.029,13.3029,4.60091,2470.74,2023-9-30T02:16:55Z
2023-09-30T00:17:35Z,42.805,6.029,13.3030,4.60093,2470.646,2023-9-30T02:19:58Z
2023-09-30T00:20:38Z,42.805,6.029,13.3027,4.60090,2470.693,2023-9-30T02:23:01Z
2023-09-30T00:23:41Z,42.805,6.029,13.3031,4.60090,2470.693,2023-9-30T02:26:04Z
2023-09-30T00:26:44Z,42.805,6.029,13.3028,4.60091,2470.67,2023-9-30T02:29:07Z
2023-09-30T00:29:47Z,42.805,6.029,13.3026,4.60091,2470.684,2023-9-30T02:32:10Z
2023-09-30T00:32:50Z,42.805,6.029,13.3032,4.60091,2470.684,2023-9-30T02:35:14Z
2023-09-30T00:35:53Z,42.805,6.029,13.3026,4.60092,2470.67,2023-9-30T02:38:17Z
2023-09-30T00:38:56Z,42.805,6.029,13.3024,4.60091,2470.67,2023-9-30T02:41:20Z
2023-09-30T00:42:00Z,42.805,6.029,13.3029,4.60092,2470.67,2023-9-30T02:44:23Z
2023-09-30T00:45:03Z,42.805,6.029,13.3027,4.60090,2470.646,2023-9-30T02:47:26Z
2023-09-30T00:48:06Z,42.805,6.029,13.3031,4.60090,2470.646,2023-9-30T02:50:29Z
2023-09-30T00:51:09Z,42.805,6.029,13.3025,4.60090,2470.624,2023-9-30T02:53:32Z
2023-09-30T00:54:12Z,42.805,6.029,13.3028,4.60091,2470.637,2023-9-30T02:56:35Z
2023-09-30T00:57:15Z,42.805,6.029,13.3028,4.60090,2470.661,2023-9-30T02:59:38Z
2023-09-30T01:00:18Z,42.805,6.029,13.3029,4.60090,2470.661,2023-9-30T03:02:41Z
2023-09-30T01:03:21Z,42.805,6.029,13.3031,4.60091,2470.646,2023-9-30T03:05:44Z
2023-09-30T01:06:24Z,42.805,6.029,13.3026,4.60092,2470.637,2023-9-30T03:08:47Z
2023-09-30T01:09:27Z,42.805,6.029,13.3029,4.60090,2470.6,2023-9-30T03:11:51Z
2023-09-30T01:12:30Z,42.805,6.029,13.3026,4.60090,2470.624,2023-9-30T03:14:54Z
2023-09-30T01:15:33Z,42.805,6.029,13.3027,4.60092,2470.646,2023-9-30T03:17:57Z
2023-09-30T01:18:37Z,42.805,6.029,13.3026,4.60090,2470.624,2023-9-30T03:21:00Z
2023-09-30T01:21:40Z,42.805,6.029,13.3028,4.60090,2470.6,2023-9-30T03:24:03Z
2023-09-30T01:24:43Z,42.805,6.029,13.3023,4.60091,2470.624,2023-9-30T03:27:06Z
2023-09-30T01:27:46Z,42.805,6.029,13.3026,4.60091,2470.646,2023-9-30T03:30:09Z
2023-09-30T01:30:49Z,42.805,6.029,13.3029,4.60089,2470.61,2023-9-30T03:33:12Z
2023-09-30T01:33:52Z,42.805,6.029,13.3026,4.60090,2470.661,2023-9-30T03:36:15Z
2023-09-30T01:36:55Z,42.805,6.029,13.3029,4.60092,2470.624,2023-9-30T03:39:18Z
2023-09-30T01:39:58Z,42.805,6.029,13.3027,4.60090,2470.624,2023-9-30T03:42:21Z
2023-09-30T01:43:01Z,42.805,6.029,13.3027,4.60090,2470.6,2023-9-30T03:45:24Z
2023-09-30T01:46:04Z,42.805,6.029,13.3026,4.60090,2470.624,2023-9-30T03:48:28Z
2023-09-30T01:49:07Z,42.805,6.029,13.3027,4.60090,2470.577,2023-9-30T03:51:31Z
2023-09-30T01:52:10Z,42.805,6.029,13.3028,4.60090,2470.6,2023-9-30T03:54:34Z
2023-09-30T01:55:14Z,42.805,6.029,13.3029,4.60089,2470.577,2023-9-30T03:57:37Z
2023-09-30T01:58:17Z,42.805,6.029,13.3024,4.60090,2470.624,2023-9-30T04:00:40Z
2023-09-30T02:01:20Z,42.805,6.029,13.3027,4.60089,2470.624,2023-9-30T04:03:43Z
2023-09-30T02:04:23Z,42.805,6.029,13.3030,4.60090,2470.637,2023-9-30T04:06:46Z
2023-09-30T02:07:26Z,42.805,6.029,13.3036,4.60090,2470.637,2023-9-30T04:09:49Z
2023-09-30T02:10:29Z,42.805,6.029,13.3027,4.60089,2470.637,2023-9-30T04:12:52Z
2023-09-30T02:13:32Z,42.805,6.029,13.3026,4.60089,2470.624,2023-9-30T04:15:55Z
2023-09-30T02:16:35Z,42.805,6.029,13.3028,4.60090,2470.6,2023-9-30T04:18:58Z
2023-09-30T02:19:38Z,42.805,6.029,13.3032,4.60089,2470.637,2023-9-30T04:22:01Z
2023-09-30T02:22:41Z,42.805,6.029,13.3024,4.60089,2470.6,2023-9-30T04:25:04Z
2023-09-30T02:25:44Z,42.805,6.029,13.3029,4.60089,2470.614,2023-9-30T04:28:08Z
2023-09-30T02:28:47Z,42.805,6.029,13.3027,4.60089,2470.637,2023-9-30T04:31:11Z
2023-09-30T02:31:50Z,42.805,6.029,13.3027,4.60089,2470.586,2023-9-30T04:34:14Z
2023-09-30T02:34:54Z,42.805,6.029,13.3029,4.60088,2470.624,2023-9-30T04:37:17Z
2023-09-30T02:37:57Z,42.805,6.029,13.3026,4.60089,2470.6,2023-9-30T04:40:20Z
2023-09-30T02:41:00Z,42.805,6.029,13.3029,4.60089,2470.6,2023-9-30T04:43:23Z
2023-09-30T02:44:03Z,42.805,6.029,13.3028,4.60088,2470.624,2023-9-30T04:46:26Z
2023-09-30T02:47:06Z,42.805,6.029,13.3025,4.60089,2470.637,2023-9-30T04:49:29Z
2023-09-30T02:50:09Z,42.805,6.029,13.3030,4.60092,2470.614,2023-9-30T04:52:32Z
2023-09-30T02:53:12Z,42.805,6.029,13.3027,4.60090,2470.614,2023-9-30T04:55:35Z
2023-09-30T02:56:15Z,42.805,6.029,13.3027,4.60090,2470.6,2023-9-30T04:58:38Z
2023-09-30T02:59:18Z,42.805,6.029,13.3029,4.60090,2470.637,2023-9-30T05:01:41Z
2023-09-30T03:02:21Z,42.805,6.029,13.3029,4.60089,2470.637,2023-9-30T05:04:45Z
2023-09-30T03:05:24Z,42.805,6.029,13.3026,4.60092,2470.624,2023-9-30T05:07:48Z
2023-09-30T03:08:27Z,42.805,6.029,13.3031,4.60089,2470.624,2023-9-30T05:10:51Z
2023-09-30T03:11:31Z,42.805,6.029,13.3029,4.60090,2470.614,2023-9-30T05:13:54Z
2023-09-30T03:14:34Z,42.805,6.029,13.3029,4.60089,2470.637,2023-9-30T05:16:57Z
2023-09-30T03:17:37Z,42.805,6.029,13.3029,4.60090,2470.637,2023-9-30T05:20:00Z
2023-09-30T03:20:40Z,42.805,6.029,13.3027,4.60089,2470.614,2023-9-30T05:23:03Z
2023-09-30T03:23:43Z,42.805,6.029,13.3031,4.60089,2470.61,2023-9-30T05:26:06Z
2023-09-30T03:26:46Z,42.805,6.029,13.3031,4.60089,2470.624,2023-9-30T05:29:09Z
2023-09-30T03:29:49Z,42.805,6.029,13.3027,4.60092,2470.67,2023-9-30T05:32:12Z
2023-09-30T03:32:52Z,42.805,6.029,13.3027,4.60089,2470.637,2023-9-30T05:35:15Z
2023-09-30T03:35:55Z,42.805,6.029,13.3029,4.60091,2470.61,2023-9-30T05:38:18Z
2023-09-30T03:38:58Z,42.805,6.029,13.3026,4.60089,2470.646,2023-9-30T05:41:22Z
2023-09-30T03:42:01Z,42.805,6.029,13.3029,4.60089,2470.637,2023-9-30T05:44:25Z
2023-09-30T03:45:04Z,42.805,6.029,13.3028,4.60089,2470.661,2023-9-30T05:47:28Z
2023-09-30T03:48:07Z,42.805,6.029,13.3027,4.60089,2470.646,2023-9-30T05:50:31Z
2023-09-30T03:51:11Z,42.805,6.029,13.3028,4.60089,2470.684,2023-9-30T05:53:34Z
2023-09-30T03:54:14Z,42.805,6.029,13.3029,4.60089,2470.646,2023-9-30T05:56:37Z
2023-09-30T03:57:17Z,42.805,6.029,13.3029,4.60090,2470.684,2023-9-30T05:59:40Z
2023-09-30T04:00:20Z,42.805,6.029,13.3030,4.60089,2470.67,2023-9-30T06:02:43Z
2023-09-30T04:03:23Z,42.805,6.029,13.3027,4.60091,2470.67,2023-9-30T06:05:46Z
2023-09-30T04:06:26Z,42.805,6.029,13.3029,4.60090,2470.67,2023-9-30T06:08:49Z
2023-09-30T04:09:29Z,42.805,6.029,13.3031,4.60090,2470.684,2023-9-30T06:11:52Z
2023-09-30T04:12:32Z,42.805,6.029,13.3028,4.60089,2470.67,2023-9-30T06:14:55Z
2023-09-30T04:15:35Z,42.805,6.029,13.3028,4.60089,2470.67,2023-9-30T06:17:58Z
2023-09-30T04:18:38Z,42.805,6.029,13.3027,4.60091,2470.717,2023-9-30T06:21:02Z
2023-09-30T04:21:41Z,42.805,6.029,13.3026,4.60089,2470.67,2023-9-30T06:24:05Z
2023-09-30T04:24:44Z,42.805,6.029,13.3028,4.60090,2470.717,2023-9-30T06:27:08Z
2023-09-30T04:27:48Z,42.805,6.029,13.3029,4.60089,2470.707,2023-9-30T06:30:11Z
2023-09-30T04:30:51Z,42.805,6.029,13.3028,4.60090,2470.717,2023-9-30T06:33:14Z
2023-09-30T04:33:54Z,42.805,6.029,13.3029,4.60089,2470.763,2023-9-30T06:36:17Z
2023-09-30T04:36:57Z,42.805,6.029,13.3026,4.60091,2470.73,2023-9-30T06:39:20Z
2023-09-30T04:40:00Z,42.805,6.029,13.3027,4.60092,2470.717,2023-9-30T06:42:23Z
2023-09-30T04:43:03Z,42.805,6.029,13.3026,4.60090,2470.754,2023-9-30T06:45:26Z
2023-09-30T04:46:06Z,42.805,6.029,13.3027,4.60090,2470.763,2023-9-30T06:48:29Z
2023-09-30T04:49:09Z,42.805,6.029,13.3026,4.60091,2470.717,2023-9-30T06:51:32Z
2023-09-30T04:52:12Z,42.805,6.029,13.3031,4.60090,2470.717,2023-9-30T06:54:35Z
2023-09-30T04:55:15Z,42.805,6.029,13.3029,4.60091,2470.754,2023-9-30T06:57:39Z
2023-09-30T04:58:18Z,42.805,6.029,13.3030,4.60090,2470.717,2023-9-30T07:00:42Z
2023-09-30T05:01:21Z,42.805,6.029,13.3028,4.60091,2470.73,2023-9-30T07:03:45Z
2023-09-30T05:04:25Z,42.805,6.029,13.3030,4.60091,2470.73,2023-9-30T07:06:48Z
2023-09-30T05:07:28Z,42.805,6.029,13.3029,4.60089,2470.763,2023-9-30T07:09:51Z
2023-09-30T05:10:31Z,42.805,6.029,13.3026,4.60090,2470.754,2023-9-30T07:12:54Z
2023-09-30T05:13:34Z,42.805,6.029,13.3029,4.60089,2470.74,2023-9-30T07:15:57Z
2023-09-30T05:16:37Z,42.805,6.029,13.3031,4.60089,2470.74,2023-9-30T07:19:00Z
2023-09-30T05:19:40Z,42.805,6.029,13.3026,4.60089,2470.763,2023-9-30T07:22:03Z
2023-09-30T05:22:43Z,42.805,6.029,13.3027,4.60091,2470.763,2023-9-30T07:25:06Z
2023-09-30T05:25:46Z,42.805,6.029,13.3027,4.60089,2470.74,2023-9-30T07:28:09Z
2023-09-30T05:28:49Z,42.805,6.029,13.3031,4.60090,2470.787,2023-9-30T07:31:12Z
2023-09-30T05:31:52Z,42.805,6.029,13.3028,4.60089,2470.763,2023-9-30T07:34:15Z
2023-09-30T05:34:55Z,42.805,6.029,13.3027,4.60089,2470.763,2023-9-30T07:37:19Z
2023-09-30T05:37:58Z,42.805,6.029,13.3026,4.60089,2470.787,2023-9-30T07:40:22Z
2023-09-30T05:41:02Z,42.805,6.029,13.3031,4.60089,2470.8,2023-9-30T07:43:25Z
2023-09-30T05:44:05Z,42.805,6.029,13.3029,4.60090,2470.8,2023-9-30T07:46:28Z
2023-09-30T05:47:08Z,42.805,6.029,13.3027,4.60090,2470.8,2023-9-30T07:49:31Z
2023-09-30T05:50:11Z,42.805,6.029,13.3029,4.60089,2470.81,2023-9-30T07:52:34Z
2023-09-30T05:53:14Z,42.805,6.029,13.3029,4.60089,2470.8,2023-9-30T07:55:37Z
2023-09-30T05:56:17Z,42.805,6.029,13.3026,4.60089,2470.81,2023-9-30T07:58:40Z
2023-09-30T05:59:20Z,42.805,6.029,13.3027,4.60092,2470.787,2023-9-30T08:01:43Z
2023-09-30T06:02:23Z,42.805,6.029,13.3029,4.60093,2470.777,2023-9-30T08:04:46Z
2023-09-30T06:05:26Z,42.805,6.029,13.3030,4.60090,2470.81,2023-9-30T08:07:49Z
2023-09-30T06:08:29Z,42.805,6.029,13.3024,4.60090,2470.81,2023-9-30T08:10:52Z
2023-09-30T06:11:32Z,42.805,6.029,13.3029,4.60090,2470.833,2023-9-30T08:13:56Z
2023-09-30T06:14:35Z,42.805,6.029,13.3029,4.60092,2470.81,2023-9-30T08:16:59Z
2023-09-30T06:17:38Z,42.805,6.029,13.3026,4.60091,2470.847,2023-9-30T08:20:02Z
2023-09-30T06:20:42Z,42.805,6.029,13.3030,4.60090,2470.81,2023-9-30T08:23:05Z
2023-09-30T06:23:45Z,42.805,6.029,13.3029,4.60090,2470.833,2023-9-30T08:26:08Z
2023-09-30T06:26:48Z,42.805,6.029,13.3029,4.60091,2470.787,2023-9-30T08:29:11Z
2023-09-30T06:29:51Z,42.805,6.029,13.3026,4.60090,2470.833,2023-9-30T08:32:14Z
2023-09-30T06:32:55Z,42.805,6.029,13.3029,4.60091,2470.847,2023-9-30T08:35:18Z
2023-09-30T06:35:58Z,42.805,6.029,13.3026,4.60089,2470.833,2023-9-30T08:38:21Z
2023-09-30T06:39:01Z,42.805,6.029,13.3036,4.60091,2470.871,2023-9-30T08:41:24Z
2023-09-30T06:42:04Z,42.805,6.029,13.3026,4.60091,2470.871,2023-9-30T08:44:27Z
2023-09-30T06:45:07Z,42.805,6.029,13.3028,4.60091,2470.81,2023-9-30T08:47:30Z
2023-09-30T06:48:10Z,42.805,6.029,13.3026,4.60090,2470.824,2023-9-30T08:50:34Z
2023-09-30T06:51:13Z,42.805,6.029,13.3027,4.60091,2470.81,2023-9-30T08:53:37Z
2023-09-30T06:54:17Z,42.805,6.029,13.3024,4.60090,2470.824,2023-9-30T08:56:40Z
2023-09-30T06:57:20Z,42.805,6.029,13.3026,4.60092,2470.81,2023-9-30T08:59:43Z
2023-09-30T07:00:23Z,42.805,6.029,13.3029,4.60090,2470.847,2023-9-30T09:02:46Z
2023-09-30T07:03:26Z,42.805,6.029,13.3028,4.60089,2470.81,2023-9-30T09:05:49Z
2023-09-30T07:06:29Z,42.805,6.029,13.3029,4.60089,2470.833,2023-9-30T09:08:52Z
2023-09-30T07:09:32Z,42.805,6.029,13.3029,4.60092,2470.833,2023-9-30T09:11:55Z
2023-09-30T07:12:35Z,42.805,6.029,13.3027,4.60090,2470.871,2023-9-30T09:14:58Z
2023-09-30T07:15:38Z,42.805,6.029,13.3028,4.60090,2470.847,2023-9-30T09:18:01Z
2023-09-30T07:18:41Z,42.805,6.029,13.3024,4.60092,2470.81,2023-9-30T09:21:04Z
2023-09-30T07:21:44Z,42.805,6.029,13.3026,4.60090,2470.8,2023-9-30T09:24:07Z
2023-09-30T07:24:47Z,42.805,6.029,13.3024,4.60090,2470.833,2023-9-30T09:27:11Z
2023-09-30T07:27:50Z,42.805,6.029,13.3027,4.60091,2470.81,2023-9-30T09:30:14Z
2023-09-30T07:30:53Z,42.805,6.029,13.3029,4.60090,2470.833,2023-9-30T09:33:17Z
2023-09-30T07:33:57Z,42.805,6.029,13.3029,4.60090,2470.857,2023-9-30T09:36:20Z
2023-09-30T07:37:00Z,42.805,6.029,13.3028,4.60090,2470.843,2023-9-30T09:39:23Z
2023-09-30T07:40:03Z,42.805,6.029,13.3024,4.60089,2470.833,2023-9-30T09:42:26Z
2023-09-30T07:43:06Z,42.805,6.029,13.3030,4.60090,2470.833,2023-9-30T09:45:29Z
2023-09-30T07:46:09Z,42.805,6.029,13.3029,4.60090,2470.847,2023-9-30T09:48:32Z
2023-09-30T07:49:12Z,42.805,6.029,13.3023,4.60090,2470.833,2023-9-30T09:51:35Z
2023-09-30T07:52:15Z,42.805,6.029,13.3030,4.60090,2470.833,2023-9-30T09:54:38Z
2023-09-30T07:55:18Z,42.805,6.029,13.3030,4.60090,2470.833,2023-9-30T09:57:41Z
2023-09-30T07:58:21Z,42.805,6.029,13.3029,4.60091,2470.81,2023-9-30T10:00:44Z
2023-09-30T08:01:24Z,42.805,6.029,13.3026,4.60090,2470.824,2023-9-30T10:03:48Z
2023-09-30T08:04:27Z,42.805,6.029,13.3026,4.60091,2470.866,2023-9-30T10:06:51Z
2023-09-30T08:07:30Z,42.805,6.029,13.3029,4.60090,2470.833,2023-9-30T10:09:54Z
2023-09-30T08:10:34Z,42.805,6.029,13.3029,4.60090,2470.8,2023-9-30T10:12:57Z
2023-09-30T08:13:37Z,42.805,6.029,13.3024,4.60090,2470.833,2023-9-30T10:16:00Z
2023-09-30T08:16:40Z,42.805,6.029,13.3029,4.60090,2470.847,2023-9-30T10:19:03Z
2023-09-30T08:19:43Z,42.805,6.029,13.3026,4.60090,2470.847,2023-9-30T10:22:06Z
2023-09-30T08:22:46Z,42.805,6.029,13.3026,4.60089,2470.833,2023-9-30T10:25:09Z
2023-09-30T08:25:49Z,42.805,6.029,13.3029,4.60090,2470.833,2023-9-30T10:28:12Z
2023-09-30T08:28:52Z,42.805,6.029,13.3030,4.60090,2470.81,2023-9-30T10:31:15Z
2023-09-30T08:31:54Z,42.805,6.029,13.3027,4.60090,2470.833,2023-9-30T10:34:17Z
2023-09-30T08:34:57Z,42.805,6.029,13.3028,4.60089,2470.833,2023-9-30T10:37:20Z
2023-09-30T08:38:00Z,42.805,6.029,13.3027,4.60091,2470.787,2023-9-30T10:40:23Z
2023-09-30T08:41:03Z,42.805,6.029,13.3031,4.60092,2470.847,2023-9-30T10:43:27Z
2023-09-30T08:44:06Z,42.805,6.029,13.3029,4.60090,2470.81,2023-9-30T10:46:30Z
2023-09-30T08:47:10Z,42.805,6.029,13.3030,4.60091,2470.824,2023-9-30T10:49:33Z
2023-09-30T08:50:13Z,42.805,6.029,13.3031,4.60089,2470.833,2023-9-30T10:52:36Z
2023-09-30T08:53:16Z,42.805,6.029,13.3024,4.60089,2470.824,2023-9-30T10:55:39Z
2023-09-30T08:56:19Z,42.805,6.029,13.3029,4.60090,2470.833,2023-9-30T10:58:42Z
2023-09-30T08:59:22Z,42.805,6.029,13.3026,4.60090,2470.81,2023-9-30T11:01:45Z
2023-09-30T09:02:25Z,42.805,6.029,13.3029,4.60091,2470.796,2023-9-30T11:04:48Z
2023-09-30T09:05:28Z,42.805,6.029,13.3030,4.60090,2470.787,2023-9-30T11:07:51Z
2023-09-30T09:08:31Z,42.805,6.029,13.3029,4.60091,2470.833,2023-9-30T11:10:54Z
2023-09-30T09:11:34Z,42.805,6.029,13.3029,4.60091,2470.833,2023-9-30T11:13:57Z
2023-09-30T09:14:37Z,42.805,6.029,13.3029,4.60090,2470.8,2023-9-30T11:17:01Z
2023-09-30T09:17:40Z,42.805,6.029,13.3029,4.60089,2470.847,2023-9-30T11:20:04Z
2023-09-30T09:20:43Z,42.805,6.029,13.3029,4.60092,2470.8,2023-9-30T11:23:07Z
2023-09-30T09:23:47Z,42.805,6.029,13.3028,4.60089,2470.81,2023-9-30T11:26:10Z
2023-09-30T09:26:50Z,42.805,6.029,13.3026,4.60090,2470.824,2023-9-30T11:29:13Z
2023-09-30T09:29:53Z,42.805,6.029,13.3025,4.60090,2470.787,2023-9-30T11:32:16Z
2023-09-30T09:32:56Z,42.805,6.029,13.3028,4.60089,2470.824,2023-9-30T11:35:19Z
2023-09-30T09:35:59Z,42.805,6.029,13.3031,4.60091,2470.787,2023-9-30T11:38:22Z
2023-09-30T09:39:02Z,42.805,6.029,13.3028,4.60090,2470.787,2023-9-30T11:41:25Z
2023-09-30T09:42:05Z,42.805,6.029,13.3026,4.60092,2470.8,2023-9-30T11:44:28Z
2023-09-30T09:45:08Z,42.805,6.029,13.3028,4.60090,2470.8,2023-9-30T11:47:31Z
2023-09-30T09:48:11Z,42.805,6.029,13.3025,4.60090,2470.81,2023-9-30T11:50:35Z
2023-09-30T09:51:14Z,42.805,6.029,13.3031,4.60089,2470.81,2023-9-30T11:53:38Z
2023-09-30T09:54:17Z,42.805,6.029,13.3032,4.60092,2470.787,2023-9-30T11:56:41Z
2023-09-30T09:57:21Z,42.805,6.029,13.3022,4.60089,2470.74,2023-9-30T11:59:44Z
2023-09-30T10:00:24Z,42.805,6.029,13.3033,4.60090,2470.763,2023-9-30T12:02:47Z
2023-09-30T10:03:27Z,42.805,6.029,13.3023,4.60091,2470.726,2023-9-30T12:05:50Z
2023-09-30T10:06:30Z,42.805,6.029,13.3027,4.60090,2470.777,2023-9-30T12:08:53Z
2023-09-30T10:09:33Z,42.805,6.029,13.3026,4.60089,2470.777,2023-9-30T12:11:56Z
2023-09-30T10:12:36Z,42.805,6.029,13.3025,4.60090,2470.763,2023-9-30T12:14:59Z
2023-09-30T10:15:39Z,42.805,6.029,13.3026,4.60093,2470.763,2023-9-30T12:18:02Z
2023-09-30T10:18:42Z,42.805,6.029,13.3026,4.60090,2470.763,2023-9-30T12:21:05Z
2023-09-30T10:21:45Z,42.805,6.029,13.3027,4.60089,2470.763,2023-9-30T12:24:08Z
2023-09-30T10:24:48Z,42.805,6.029,13.3029,4.60090,2470.763,2023-9-30T12:27:12Z
2023-09-30T10:27:51Z,42.805,6.029,13.3026,4.60090,2470.763,2023-9-30T12:30:15Z
2023-09-30T10:30:53Z,42.805,6.029,13.3027,4.60089,2470.74,2023-9-30T12:33:16Z
2023-09-30T10:33:56Z,42.805,6.029,13.3028,4.60089,2470.763,2023-9-30T12:36:20Z
2023-09-30T10:36:59Z,42.805,6.029,13.3028,4.60090,2470.754,2023-9-30T12:39:23Z
2023-09-30T10:40:02Z,42.805,6.029,13.3024,4.60092,2470.787,2023-9-30T12:42:26Z
2023-09-30T10:43:06Z,42.805,6.029,13.3026,4.60089,2470.74,2023-9-30T12:45:29Z
2023-09-30T10:46:09Z,42.805,6.029,13.3029,4.60089,2470.74,2023-9-30T12:48:32Z
2023-09-30T10:49:12Z,42.805,6.029,13.3029,4.60090,2470.73,2023-9-30T12:51:35Z
2023-09-30T10:52:15Z,42.805,6.029,13.3027,4.60091,2470.74,2023-9-30T12:54:38Z
2023-09-30T10:55:18Z,42.805,6.029,13.3028,4.60090,2470.74,2023-9-30T12:57:41Z
2023-09-30T10:58:21Z,42.805,6.029,13.3026,4.60089,2470.707,2023-9-30T13:00:44Z
2023-09-30T11:01:24Z,42.805,6.029,13.3026,4.60089,2470.717,2023-9-30T13:03:47Z
2023-09-30T11:04:27Z,42.805,6.029,13.3029,4.60091,2470.717,2023-9-30T13:06:50Z
2023-09-30T11:07:30Z,42.805,6.029,13.3031,4.60090,2470.754,2023-9-30T13:09:53Z
2023-09-30T11:10:33Z,42.805,6.029,13.3026,4.60090,2470.73,2023-9-30T13:12:57Z
2023-09-30T11:13:36Z,42.805,6.029,13.3028,4.60089,2470.717,2023-9-30T13:16:00Z
2023-09-30T11:16:39Z,42.805,6.029,13.3029,4.60089,2470.73,2023-9-30T13:19:03Z
2023-09-30T11:19:43Z,42.805,6.029,13.3029,4.60089,2470.73,2023-9-30T13:22:06Z
2023-09-30T11:22:46Z,42.805,6.029,13.3026,4.60090,2470.754,2023-9-30T13:25:09Z
2023-09-30T11:25:49Z,42.805,6.029,13.3025,4.60089,2470.707,2023-9-30T13:28:12Z
2023-09-30T11:28:52Z,42.805,6.029,13.3031,4.60089,2470.717,2023-9-30T13:31:15Z
2023-09-30T11:31:55Z,42.805,6.029,13.3027,4.60091,2470.73,2023-9-30T13:34:18Z
2023-09-30T11:34:58Z,42.805,6.029,13.3027,4.60089,2470.717,2023-9-30T13:37:21Z
2023-09-30T11:38:01Z,42.805,6.029,13.3026,4.60089,2470.693,2023-9-30T13:40:24Z
2023-09-30T11:41:04Z,42.805,6.029,13.3026,4.60089,2470.684,2023-9-30T13:43:27Z
2023-09-30T11:44:07Z,42.805,6.029,13.3025,4.60089,2470.707,2023-9-30T13:46:31Z
2023-09-30T11:47:10Z,42.805,6.029,13.3028,4.60089,2470.717,2023-9-30T13:49:34Z
2023-09-30T11:50:13Z,42.805,6.029,13.3026,4.60090,2470.67,2023-9-30T13:52:37Z
2023-09-30T11:53:17Z,42.805,6.029,13.3029,4.60090,2470.693,2023-9-30T13:55:40Z
2023-09-30T11:56:20Z,42.805,6.029,13.3029,4.60088,2470.693,2023-9-30T13:58:43Z
2023-09-30T11:59:23Z,42.805,6.029,13.3027,4.60088,2470.693,2023-9-30T14:01:46Z
2023-09-30T12:02:26Z,42.805,6.029,13.3029,4.60089,2470.693,2023-9-30T14:04:49Z
2023-09-30T12:05:29Z,42.805,6.029,13.3029,4.60092,2470.693,2023-9-30T14:07:52Z
2023-09-30T12:08:32Z,42.805,6.029,13.3026,4.60089,2470.693,2023-9-30T14:10:55Z
2023-09-30T12:11:35Z,42.805,6.029,13.3026,4.60089,2470.693,2023-9-30T14:13:58Z
2023-09-30T12:14:38Z,42.805,6.029,13.3026,4.60089,2470.67,2023-9-30T14:17:01Z
2023-09-30T12:17:41Z,42.805,6.029,13.3026,4.60090,2470.633,2023-9-30T14:20:04Z
2023-09-30T12:20:44Z,42.805,6.029,13.3024,4.60089,2470.646,2023-9-30T14:23:08Z
2023-09-30T12:23:47Z,42.805,6.029,13.3028,4.60089,2470.646,2023-9-30T14:26:11Z
2023-09-30T12:26:50Z,42.805,6.029,13.3027,4.60089,2470.707,2023-9-30T14:29:14Z
2023-09-30T12:29:54Z,42.805,6.029,13.3032,4.60089,2470.646,2023-9-30T14:32:17Z
2023-09-30T12:32:57Z,42.805,6.029,13.3029,4.60089,2470.646,2023-9-30T14:35:20Z
2023-09-30T12:36:00Z,42.805,6.029,13.3027,4.60088,2470.656,2023-9-30T14:38:23Z
2023-09-30T12:39:03Z,42.805,6.029,13.3030,4.60089,2470.646,2023-9-30T14:41:26Z
2023-09-30T12:42:06Z,42.805,6.029,13.3026,4.60088,2470.624,2023-9-30T14:44:29Z
2023-09-30T12:45:09Z,42.805,6.029,13.3027,4.60088,2470.67,2023-9-30T14:47:32Z
2023-09-30T12:48:12Z,42.805,6.029,13.3025,4.60089,2470.661,2023-9-30T14:50:35Z
2023-09-30T12:51:15Z,42.805,6.029,13.3029,4.60089,2470.624,2023-9-30T14:53:38Z
2023-09-30T12:54:18Z,42.805,6.029,13.3024,4.60089,2470.624,2023-9-30T14:56:42Z
2023-09-30T12:57:21Z,42.805,6.029,13.3026,4.60088,2470.646,2023-9-30T14:59:45Z
2023-09-30T13:00:24Z,42.805,6.029,13.3026,4.60088,2470.661,2023-9-30T15:02:48Z
2023-09-30T13:03:28Z,42.805,6.029,13.3028,4.60088,2470.646,2023-9-30T15:05:51Z
2023-09-30T13:06:31Z,42.805,6.029,13.3029,4.60092,2470.646,2023-9-30T15:08:54Z
2023-09-30T13:09:34Z,42.805,6.029,13.3029,4.60088,2470.624,2023-9-30T15:11:57Z
2023-09-30T13:12:37Z,42.805,6.029,13.3030,4.60088,2470.6,2023-9-30T15:15:00Z
2023-09-30T13:15:40Z,42.805,6.029,13.3027,4.60088,2470.6,2023-9-30T15:18:03Z
2023-09-30T13:18:43Z,42.805,6.029,13.3028,4.60089,2470.624,2023-9-30T15:21:06Z
2023-09-30T13:21:46Z,42.805,6.029,13.3029,4.60088,2470.61,2023-9-30T15:24:09Z
2023-09-30T13:24:49Z,42.805,6.029,13.3026,4.60088,2470.646,2023-9-30T15:27:12Z
2023-09-30T13:27:52Z,42.805,6.029,13.3028,4.60089,2470.6,2023-9-30T15:30:15Z
2023-09-30T13:30:55Z,42.805,6.029,13.3026,4.60089,2470.637,2023-9-30T15:33:19Z
2023-09-30T13:33:58Z,42.805,6.029,13.3029,4.60089,2470.577,2023-9-30T15:36:22Z
2023-09-30T13:37:01Z,42.805,6.029,13.3027,4.60089,2470.624,2023-9-30T15:39:25Z
2023-09-30T13:40:05Z,42.805,6.029,13.3029,4.60089,2470.637,2023-9-30T15:42:28Z
2023-09-30T13:43:08Z,42.805,6.029,13.3026,4.60090,2470.614,2023-9-30T15:45:31Z
2023-09-30T13:46:11Z,42.805,6.029,13.3029,4.60088,2470.624,2023-9-30T15:48:34Z
2023-09-30T13:49:14Z,42.805,6.029,13.3027,4.60088,2470.624,2023-9-30T15:51:37Z
2023-09-30T13:52:17Z,42.805,6.029,13.3031,4.60088,2470.624,2023-9-30T15:54:40Z
2023-09-30T13:55:20Z,42.805,6.029,13.3029,4.60088,2470.6,2023-9-30T15:57:43Z
2023-09-30T13:58:23Z,42.805,6.029,13.3027,4.60089,2470.61,2023-9-30T16:00:46Z
2023-09-30T14:01:26Z,42.805,6.029,13.3028,4.60088,2470.624,2023-9-30T16:03:49Z
2023-09-30T14:04:29Z,42.805,6.029,13.3024,4.60091,2470.614,2023-9-30T16:06:52Z
2023-09-30T14:07:32Z,42.805,6.029,13.3027,4.60088,2470.6,2023-9-30T16:09:56Z
2023-09-30T14:10:35Z,42.805,6.029,13.3031,4.60088,2470.637,2023-9-30T16:12:59Z
2023-09-30T14:13:38Z,42.805,6.029,13.3027,4.60089,2470.624,2023-9-30T16:16:02Z
2023-09-30T14:16:42Z,42.805,6.029,13.3024,4.60089,2470.614,2023-9-30T16:19:05Z
2023-09-30T14:19:45Z,42.805,6.029,13.3029,4.60089,2470.614,2023-9-30T16:22:08Z
2023-09-30T14:22:48Z,42.805,6.029,13.3031,4.60089,2470.6,2023-9-30T16:25:11Z
2023-09-30T14:25:51Z,42.805,6.029,13.3029,4.60089,2470.614,2023-9-30T16:28:14Z
2023-09-30T14:28:54Z,42.805,6.029,13.3026,4.60088,2470.624,2023-9-30T16:31:17Z
2023-09-30T14:31:57Z,42.805,6.029,13.3026,4.60089,2470.624,2023-9-30T16:34:20Z
2023-09-30T14:35:00Z,42.805,6.029,13.3029,4.60092,2470.624,2023-9-30T16:37:23Z
2023-09-30T14:38:03Z,42.805,6.029,13.3026,4.60088,2470.614,2023-9-30T16:40:26Z
2023-09-30T14:41:06Z,42.805,6.029,13.3026,4.60088,2470.637,2023-9-30T16:43:29Z
2023-09-30T14:44:09Z,42.805,6.029,13.3026,4.60089,2470.624,2023-9-30T16:46:33Z
2023-09-30T14:47:12Z,42.805,6.029,13.3026,4.60088,2470.614,2023-9-30T16:49:36Z
2023-09-30T14:50:15Z,42.805,6.029,13.3028,4.60088,2470.6,2023-9-30T16:52:39Z
2023-09-30T14:53:19Z,42.805,6.029,13.3027,4.60088,2470.577,2023-9-30T16:55:42Z
2023-09-30T14:56:22Z,42.805,6.029,13.3028,4.60090,2470.577,2023-9-30T16:58:45Z
2023-09-30T14:59:25Z,42.805,6.029,13.3028,4.60089,2470.624,2023-9-30T17:01:48Z
2023-09-30T15:02:28Z,42.805,6.029,13.3025,4.60088,2470.661,2023-9-30T17:04:51Z
2023-09-30T15:05:31Z,42.805,6.029,13.3024,4.60088,2470.6,2023-9-30T17:07:54Z
2023-09-30T15:08:34Z,42.805,6.029,13.3026,4.60089,2470.637,2023-9-30T17:10:57Z
2023-09-30T15:11:37Z,42.805,6.029,13.3028,4.60089,2470.6,2023-9-30T17:14:00Z
2023-09-30T15:14:40Z,42.805,6.029,13.3026,4.60090,2470.646,2023-9-30T17:17:03Z